| time (UTC) | temp F | wind direction | speed MPH | gust MPH | rain 1hr in | rain 24hr in | rain mn in | humidity % | barometer mb |
| 20260505054257 | 59 | 324 | 1.0 | 1.0 | 0.00 | 0.00 | 0.00 | 72 | 1009.8 |
| 20260505053755 | 59 | 353 | 1.0 | 2.0 | 0.00 | 0.00 | 0.00 | 71 | 1009.6 |
| 20260505053252 | 59 | 312 | 0.0 | 0.0 | 0.00 | 0.00 | 0.00 | 71 | 1009.7 |
| 20260505052749 | 59 | 307 | 0.0 | 0.0 | 0.00 | 0.00 | 0.00 | 71 | 1009.7 |
| 20260505052246 | 59 | 315 | 0.0 | 1.0 | 0.00 | 0.00 | 0.00 | 70 | 1009.8 |
| 20260505051743 | 59 | 19 | 2.0 | 2.0 | 0.00 | 0.00 | 0.00 | 70 | 1009.8 |
| 20260505051241 | 59 | 283 | 1.0 | 1.0 | 0.00 | 0.00 | 0.00 | 69 | 1009.9 |
| 20260505050738 | 59 | 280 | 2.0 | 2.0 | 0.00 | 0.00 | 0.00 | 69 | 1009.7 |
| 20260505050237 | 59 | 321 | 1.0 | 1.0 | 0.00 | 0.00 | 0.00 | 68 | 1009.9 |
| 20260505041706 | 61 | 301 | 1.0 | 2.0 | 0.00 | 0.00 | 0.00 | 64 | 1009.9 |
| 20260505041204 | 61 | 73 | 2.0 | 3.0 | 0.00 | 0.00 | 0.00 | 65 | 1010.0 |
| 20260505040701 | 61 | 307 | 0.0 | 0.0 | 0.00 | 0.00 | 0.00 | 65 | 1010.1 |
| 20260505040158 | 61 | 319 | 1.0 | 2.0 | 0.00 | 0.00 | 0.00 | 64 | 1010.2 |
| 20260505035654 | 61 | 333 | 1.0 | 2.0 | 0.00 | 0.00 | 0.00 | 64 | 1010.2 |
| 20260505035150 | 61 | 316 | 0.0 | 1.0 | 0.00 | 0.00 | 0.00 | 65 | 1010.0 |
| 20260505034647 | 61 | 290 | 1.0 | 1.0 | 0.00 | 0.00 | 0.00 | 65 | 1010.0 |
| 20260505034144 | 61 | 216 | 4.0 | 8.0 | 0.00 | 0.00 | 0.00 | 64 | 1010.3 |
| 20260505033640 | 61 | 275 | 1.0 | 2.0 | 0.00 | 0.00 | 0.00 | 64 | 1010.2 |
| 20260505033139 | 61 | 124 | 5.0 | 8.0 | 0.00 | 0.00 | 0.00 | 63 | 1010.3 |
| 20260505032637 | 61 | 307 | 2.0 | 4.0 | 0.00 | 0.00 | 0.00 | 63 | 1010.2 |
| 20260505032133 | 61 | 175 | 7.0 | 10.0 | 0.00 | 0.00 | 0.00 | 62 | 1010.3 |
| 20260505031630 | 62 | 322 | 2.0 | 2.0 | 0.00 | 0.00 | 0.00 | 61 | 1010.2 |
| 20260505031126 | 62 | 232 | 2.0 | 2.0 | 0.00 | 0.00 | 0.00 | 61 | 1010.4 |
| 20260505030623 | 62 | 306 | 2.0 | 3.0 | 0.00 | 0.00 | 0.00 | 61 | 1010.4 |
| 20260505030119 | 62 | 141 | 3.0 | 7.0 | 0.00 | 0.00 | 0.00 | 60 | 1010.4 |
| 20260505025614 | 62 | 305 | 6.0 | 8.0 | 0.00 | 0.00 | 0.00 | 59 | 1010.3 |
| 20260505025108 | 62 | 160 | 6.0 | 8.0 | 0.00 | 0.00 | 0.00 | 58 | 1010.3 |
| 20260505024605 | 62 | 172 | 4.0 | 7.0 | 0.00 | 0.00 | 0.00 | 58 | 1010.4 |
| 20260505024103 | 62 | 164 | 5.0 | 7.0 | 0.00 | 0.00 | 0.00 | 57 | 1010.4 |
| 20260505023559 | 63 | 159 | 7.0 | 8.0 | 0.00 | 0.00 | 0.00 | 57 | 1010.5 |
| 20260505023057 | 63 | 39 | 4.0 | 7.0 | 0.00 | 0.00 | 0.00 | 56 | 1010.3 |
| 20260505022554 | 63 | 285 | 5.0 | 7.0 | 0.00 | 0.00 | 0.00 | 56 | 1010.7 |
| 20260505022051 | 63 | 216 | 4.0 | 8.0 | 0.00 | 0.00 | 0.00 | 55 | 1010.5 |
| 20260505021548 | 63 | 80 | 7.0 | 8.0 | 0.00 | 0.00 | 0.00 | 55 | 1010.6 |
| 20260505021045 | 63 | 174 | 5.0 | 9.0 | 0.00 | 0.00 | 0.00 | 55 | 1010.7 |
| 20260505020544 | 64 | 280 | 4.0 | 4.0 | 0.00 | 0.00 | 0.00 | 55 | 1010.4 |
| 20260505020042 | 64 | 4 | 5.0 | 10.0 | 0.00 | 0.00 | 0.00 | 54 | 1010.5 |
| 20260505015538 | 64 | 320 | 7.0 | 11.0 | 0.00 | 0.00 | 0.00 | 54 | 1010.5 |
| 20260505015035 | 64 | 209 | 2.0 | 2.0 | 0.00 | 0.00 | 0.00 | 54 | 1010.5 |
| 20260505014532 | 64 | 314 | 2.0 | 3.0 | 0.00 | 0.00 | 0.00 | 53 | 1010.3 |
| 20260505014030 | 64 | 106 | 9.0 | 11.0 | 0.00 | 0.00 | 0.00 | 53 | 1010.4 |
| 20260505013527 | 64 | 142 | 5.0 | 7.0 | 0.00 | 0.00 | 0.00 | 53 | 1010.4 |
| 20260505013024 | 64 | 162 | 4.0 | 7.0 | 0.00 | 0.00 | 0.00 | 53 | 1010.1 |
| 20260505012522 | 64 | 256 | 4.0 | 9.0 | 0.00 | 0.00 | 0.00 | 53 | 1010.2 |
| 20260505012019 | 64 | 148 | 7.0 | 9.0 | 0.00 | 0.00 | 0.00 | 53 | 1010.2 |
| 20260505011514 | 65 | 258 | 2.0 | 3.0 | 0.00 | 0.00 | 0.00 | 53 | 1010.2 |
| 20260505011012 | 65 | 237 | 5.0 | 9.0 | 0.00 | 0.00 | 0.00 | 53 | 1010.1 |
| 20260505010507 | 65 | 334 | 1.0 | 2.0 | 0.00 | 0.00 | 0.00 | 53 | 1010.0 |
| 20260505010004 | 65 | 216 | 5.0 | 7.0 | 0.00 | 0.00 | 0.00 | 53 | 1009.9 |
| 20260505005500 | 65 | 128 | 7.0 | 9.0 | 0.00 | 0.00 | 0.00 | 53 | 1009.9 |
| 20260505004957 | 65 | 176 | 4.0 | 13.0 | 0.00 | 0.00 | 0.00 | 54 | 1009.8 |
| 20260505004454 | 65 | 260 | 6.0 | 9.0 | 0.00 | 0.00 | 0.00 | 53 | 1009.8 |
| 20260505003951 | 65 | 212 | 3.0 | 4.0 | 0.00 | 0.00 | 0.00 | 54 | 1009.6 |
| 20260505003448 | 65 | 110 | 6.0 | 8.0 | 0.00 | 0.00 | 0.00 | 55 | 1009.7 |
| 20260505002944 | 65 | 35 | 6.0 | 8.0 | 0.00 | 0.00 | 0.00 | 55 | 1009.7 |
| 20260505002441 | 65 | 321 | 1.0 | 3.0 | 0.00 | 0.00 | 0.00 | 56 | 1009.3 |
| 20260505001939 | 65 | 34 | 2.0 | 3.0 | 0.00 | 0.00 | 0.00 | 57 | 1009.2 |
| 20260505001436 | 65 | 260 | 1.0 | 1.0 | 0.00 | 0.00 | 0.00 | 57 | 1009.5 |
| 20260505000933 | 64 | 318 | 1.0 | 2.0 | 0.00 | 0.00 | 0.00 | 58 | 1009.2 |
| 20260505000431 | 64 | 225 | 2.0 | 2.0 | 0.00 | 0.00 | 0.00 | 58 | 1009.4 |
| 20260504235928 | 64 | 216 | 4.0 | 4.0 | 0.00 | 0.00 | 0.00 | 59 | 1009.1 |
| 20260504235425 | 64 | 341 | 1.0 | 1.0 | 0.00 | 0.00 | 0.00 | 60 | 1009.0 |
| 20260504234921 | 64 | 313 | 1.0 | 2.0 | 0.00 | 0.00 | 0.00 | 61 | 1009.0 |
| 20260504234419 | 64 | 348 | 1.0 | 2.0 | 0.00 | 0.00 | 0.00 | 61 | 1009.1 |
| 20260504233915 | 64 | 314 | 1.0 | 2.0 | 0.00 | 0.00 | 0.00 | 61 | 1008.9 |
| 20260504233410 | 64 | 280 | 1.0 | 1.0 | 0.00 | 0.00 | 0.00 | 62 | 1008.9 |
| 20260504232907 | 64 | 325 | 1.0 | 2.0 | 0.00 | 0.00 | 0.00 | 61 | 1008.7 |
| 20260504232404 | 64 | 321 | 2.0 | 2.0 | 0.00 | 0.00 | 0.00 | 62 | 1008.7 |
| 20260504231901 | 64 | 310 | 1.0 | 1.0 | 0.00 | 0.00 | 0.00 | 61 | 1008.7 |
| 20260504231358 | 64 | 40 | 3.0 | 4.0 | 0.00 | 0.00 | 0.00 | 61 | 1008.6 |
| 20260504230854 | 64 | 353 | 1.0 | 1.0 | 0.00 | 0.00 | 0.00 | 60 | 1008.6 |
| 20260504230352 | 64 | 4 | 2.0 | 3.0 | 0.00 | 0.00 | 0.00 | 60 | 1008.4 |
| 20260504225850 | 64 | 39 | 5.0 | 7.0 | 0.00 | 0.00 | 0.00 | 60 | 1008.3 |
| 20260504225346 | 64 | 84 | 2.0 | 3.0 | 0.00 | 0.00 | 0.00 | 60 | 1008.8 |
| 20260504224844 | 64 | 112 | 7.0 | 10.0 | 0.00 | 0.00 | 0.00 | 60 | 1008.5 |
| 20260504224341 | 65 | 39 | 4.0 | 6.0 | 0.00 | 0.00 | 0.00 | 59 | 1008.5 |
| 20260504223837 | 65 | 47 | 4.0 | 4.0 | 0.00 | 0.00 | 0.00 | 58 | 1008.7 |
| 20260504223333 | 65 | 40 | 3.0 | 6.0 | 0.00 | 0.00 | 0.00 | 58 | 1008.4 |
| 20260504222829 | 66 | 36 | 3.0 | 4.0 | 0.00 | 0.00 | 0.00 | 57 | 1008.3 |
| 20260504222327 | 65 | 53 | 4.0 | 6.0 | 0.00 | 0.00 | 0.00 | 57 | 1008.3 |
| 20260504221825 | 65 | 11 | 2.0 | 3.0 | 0.00 | 0.00 | 0.00 | 57 | 1008.6 |
| 20260504221321 | 66 | 310 | 2.0 | 2.0 | 0.00 | 0.00 | 0.00 | 58 | 1008.6 |
| 20260504220819 | 66 | 340 | 2.0 | 2.0 | 0.00 | 0.00 | 0.00 | 56 | 1008.5 |
| 20260504220315 | 66 | 71 | 3.0 | 3.0 | 0.00 | 0.00 | 0.00 | 57 | 1008.7 |
| 20260504215813 | 66 | 20 | 3.0 | 4.0 | 0.00 | 0.00 | 0.00 | 56 | 1008.8 |
| 20260504215309 | 66 | 66 | 4.0 | 4.0 | 0.00 | 0.00 | 0.00 | 56 | 1008.8 |
| 20260504214805 | 66 | 120 | 2.0 | 3.0 | 0.00 | 0.00 | 0.00 | 55 | 1008.7 |
| 20260504214302 | 67 | 69 | 4.0 | 6.0 | 0.00 | 0.00 | 0.00 | 55 | 1008.8 |
| 20260504213758 | 66 | 304 | 2.0 | 3.0 | 0.00 | 0.00 | 0.00 | 54 | 1008.7 |
| 20260504213254 | 67 | 3 | 3.0 | 3.0 | 0.00 | 0.00 | 0.00 | 53 | 1008.9 |
| 20260504212752 | 67 | 298 | 1.0 | 1.0 | 0.00 | 0.00 | 0.00 | 54 | 1009.0 |
| 20260504212248 | 66 | 16 | 4.0 | 4.0 | 0.00 | 0.00 | 0.00 | 54 | 1009.0 |
| 20260504211745 | 68 | 354 | 2.0 | 3.0 | 0.00 | 0.00 | 0.00 | 52 | 1008.8 |
| 20260504211241 | 68 | 51 | 1.0 | 1.0 | 0.00 | 0.00 | 0.00 | 51 | 1009.2 |
| 20260504210739 | 69 | 277 | 4.0 | 6.0 | 0.00 | 0.00 | 0.00 | 50 | 1008.8 |
| 20260504210236 | 69 | 275 | 2.0 | 2.0 | 0.00 | 0.00 | 0.00 | 49 | 1009.0 |
| 20260504205733 | 70 | 323 | 2.0 | 3.0 | 0.00 | 0.00 | 0.00 | 47 | 1008.7 |
| 20260504205231 | 70 | 343 | 2.0 | 3.0 | 0.00 | 0.00 | 0.00 | 48 | 1008.9 |
| 20260504204729 | 70 | 51 | 2.0 | 3.0 | 0.00 | 0.00 | 0.00 | 47 | 1008.7 |
| 20260504204227 | 70 | 51 | 6.0 | 8.0 | 0.00 | 0.00 | 0.00 | 48 | 1008.8 |
| 20260504203726 | 70 | 77 | 4.0 | 7.0 | 0.00 | 0.00 | 0.00 | 47 | 1008.7 |
| 20260504203223 | 71 | 267 | 1.0 | 2.0 | 0.00 | 0.00 | 0.00 | 44 | 1008.8 |
| 20260504202724 | 71 | 82 | 3.0 | 7.0 | 0.00 | 0.00 | 0.00 | 43 | 1008.8 |
| 20260504202221 | 72 | 153 | 5.0 | 10.0 | 0.00 | 0.00 | 0.00 | 39 | 1008.6 |
| 20260504201718 | 73 | 178 | 4.0 | 6.0 | 0.00 | 0.00 | 0.00 | 39 | 1008.8 |
| 20260504201215 | 72 | 287 | 3.0 | 4.0 | 0.00 | 0.00 | 0.00 | 35 | 1008.8 |
| 20260504200713 | 72 | 148 | 6.0 | 8.0 | 0.00 | 0.00 | 0.00 | 35 | 1008.8 |
| 20260504200209 | 72 | 111 | 5.0 | 8.0 | 0.00 | 0.00 | 0.00 | 36 | 1008.8 |
| 20260504195705 | 71 | 150 | 5.0 | 8.0 | 0.00 | 0.00 | 0.00 | 36 | 1009.0 |
| 20260504195201 | 72 | 215 | 6.0 | 8.0 | 0.00 | 0.00 | 0.00 | 35 | 1009.1 |
| 20260504194658 | 71 | 92 | 2.0 | 3.0 | 0.00 | 0.00 | 0.00 | 36 | 1009.0 |
| 20260504194154 | 71 | 112 | 3.0 | 6.0 | 0.00 | 0.00 | 0.00 | 36 | 1008.9 |
| 20260504193651 | 72 | 175 | 6.0 | 8.0 | 0.00 | 0.00 | 0.00 | 35 | 1009.1 |
| 20260504193149 | 72 | 171 | 10.0 | 11.0 | 0.00 | 0.00 | 0.00 | 36 | 1009.2 |
| 20260504192647 | 72 | 167 | 6.0 | 8.0 | 0.00 | 0.00 | 0.00 | 35 | 1009.1 |
| 20260504192144 | 71 | 211 | 6.0 | 11.0 | 0.00 | 0.00 | 0.00 | 36 | 1009.1 |
| 20260504191643 | 72 | 136 | 2.0 | 4.0 | 0.00 | 0.00 | 0.00 | 36 | 1009.4 |
| 20260504191138 | 73 | 189 | 4.0 | 6.0 | 0.00 | 0.00 | 0.00 | 35 | 1009.4 |
| 20260504190635 | 73 | 190 | 4.0 | 4.0 | 0.00 | 0.00 | 0.00 | 34 | 1009.4 |
| 20260504190131 | 71 | 151 | 6.0 | 8.0 | 0.00 | 0.00 | 0.00 | 35 | 1009.4 |
| 20260504185628 | 72 | 166 | 5.0 | 9.0 | 0.00 | 0.00 | 0.00 | 34 | 1009.6 |
| 20260504185125 | 73 | 186 | 6.0 | 8.0 | 0.00 | 0.00 | 0.00 | 35 | 1009.7 |
| 20260504184620 | 72 | 144 | 1.0 | 1.0 | 0.00 | 0.00 | 0.00 | 35 | 1009.8 |
| 20260504184115 | 72 | 217 | 5.0 | 8.0 | 0.00 | 0.00 | 0.00 | 34 | 1009.9 |
| 20260504183613 | 71 | 219 | 2.0 | 3.0 | 0.00 | 0.00 | 0.00 | 34 | 1009.8 |
| 20260504183111 | 71 | 190 | 5.0 | 8.0 | 0.00 | 0.00 | 0.00 | 34 | 1010.0 |
| 20260504182608 | 71 | 213 | 3.0 | 4.0 | 0.00 | 0.00 | 0.00 | 35 | 1010.0 |
| 20260504182105 | 71 | 178 | 7.0 | 10.0 | 0.00 | 0.00 | 0.00 | 35 | 1010.2 |
| 20260504181603 | 71 | 315 | 3.0 | 4.0 | 0.00 | 0.00 | 0.00 | 36 | 1009.9 |
| 20260504181100 | 71 | 244 | 2.0 | 3.0 | 0.00 | 0.00 | 0.00 | 35 | 1010.3 |
| 20260504180559 | 70 | 305 | 2.0 | 2.0 | 0.00 | 0.00 | 0.00 | 35 | 1010.1 |
| 20260504180058 | 70 | 203 | 4.0 | 4.0 | 0.00 | 0.00 | 0.00 | 36 | 1010.3 |
| 20260504175554 | 70 | 146 | 6.0 | 8.0 | 0.00 | 0.00 | 0.00 | 37 | 1010.7 |
| 20260504175051 | 69 | 177 | 3.0 | 4.0 | 0.00 | 0.00 | 0.00 | 38 | 1010.4 |
| 20260504174549 | 69 | 185 | 2.0 | 3.0 | 0.00 | 0.00 | 0.00 | 39 | 1010.5 |
| 20260504174045 | 69 | 152 | 6.0 | 10.0 | 0.00 | 0.00 | 0.00 | 38 | 1010.6 |
| 20260504173542 | 69 | 187 | 8.0 | 11.0 | 0.00 | 0.00 | 0.00 | 38 | 1010.8 |
| 20260504173040 | 69 | 326 | 5.0 | 11.0 | 0.00 | 0.00 | 0.00 | 38 | 1010.6 |
| 20260504172536 | 69 | 191 | 3.0 | 7.0 | 0.00 | 0.00 | 0.00 | 36 | 1010.5 |
| 20260504172033 | 69 | 178 | 5.0 | 8.0 | 0.00 | 0.00 | 0.00 | 36 | 1010.6 |
| 20260504171530 | 70 | 228 | 6.0 | 9.0 | 0.00 | 0.00 | 0.00 | 36 | 1010.7 |
| 20260504171027 | 70 | 201 | 9.0 | 13.0 | 0.00 | 0.00 | 0.00 | 36 | 1010.8 |
| 20260504170522 | 69 | 115 | 8.0 | 11.0 | 0.00 | 0.00 | 0.00 | 36 | 1010.8 |
| 20260504160443 | 68 | 285 | 4.0 | 6.0 | 0.00 | 0.00 | 0.00 | 36 | 1011.7 |
| 20260504150906 | 66 | 128 | 7.0 | 11.0 | 0.00 | 0.00 | 0.00 | 39 | 1012.5 |
| 20260504150403 | 66 | 312 | 2.0 | 4.0 | 0.00 | 0.00 | 0.00 | 40 | 1012.4 |
| 20260504141333 | 66 | 215 | 4.0 | 4.0 | 0.00 | 0.00 | 0.00 | 45 | 1012.5 |
| 20260504140829 | 66 | 123 | 3.0 | 4.0 | 0.00 | 0.00 | 0.00 | 44 | 1012.5 |
| 20260504140325 | 66 | 239 | 3.0 | 6.0 | 0.00 | 0.00 | 0.00 | 43 | 1012.4 |
| 20260504130754 | 62 | 167 | 4.0 | 10.0 | 0.00 | 0.00 | 0.00 | 47 | 1013.1 |
| 20260504130250 | 61 | 283 | 5.0 | 8.0 | 0.00 | 0.00 | 0.00 | 48 | 1013.0 |
| 20260504120214 | 57 | 298 | 5.0 | 7.0 | 0.00 | 0.00 | 0.00 | 56 | 1013.4 |
| 20260504110636 | 51 | 181 | 6.0 | 9.0 | 0.00 | 0.00 | 0.00 | 62 | 1013.3 |
| 20260504110131 | 51 | 307 | 3.0 | 4.0 | 0.00 | 0.00 | 0.00 | 62 | 1013.6 |
| 20260504100551 | 51 | 251 | 1.0 | 2.0 | 0.00 | 0.00 | 0.00 | 53 | 1013.3 |
| 20260504081945 | 52 | 304 | 1.0 | 1.0 | 0.00 | 0.00 | 0.00 | 53 | 1013.0 |
| 20260504081442 | 52 | 164 | 2.0 | 4.0 | 0.00 | 0.00 | 0.00 | 53 | 1012.9 |
| 20260504080938 | 52 | 285 | 1.0 | 1.0 | 0.00 | 0.00 | 0.00 | 54 | 1012.8 |
| 20260504080435 | 52 | 305 | 0.0 | 0.0 | 0.00 | 0.00 | 0.00 | 53 | 1012.7 |
| 20260504070403 | 52 | 212 | 2.0 | 3.0 | 0.00 | 0.00 | 0.00 | 51 | 1012.5 |